Vorticity
10 10 10 10 10 10 10 10 10 10 11 12 12 13 13 13 12 12 13 13 14 14 13 11 8 6 5 4 5 5 5 6 6 7 6 6 7 7 7 9 10 8 7 5 4 5 6 7 8 8 8 7 6 6 4 5 4 3 5 6 5 3 3 2 2 4 3 3 4 9 3 -7 1 4 3 6 5 6 5 3 4 6 3 1 3 4 3 3
10 10 10 10 10 10 9 9 9 9 8 8 8 8 9 10 10 11 11 11 12 13 14 14 14 12 10 7 6 5 4 4 5 6 6 6 7 6 6 7 9 11 10 8 6 5 4 5 6 7 8 8 9 8 5 6 5 5 6 6 5 3 2 0 3 5 2 1 2 6 7 -1 -0 3 2 4 5 5 6 5 3 5 8 6 4 4 4 4
9 10 10 11 11 12 12 12 12 12 12 11 10 10 9 9 8 8 8 8 8 9 9 11 12 13 13 13 11 8 6 5 5 5 5 5 6 6 6 7 7 9 10 10 10 7 6 5 4 5 6 7 8 9 8 8 7 7 6 6 6 4 3 2 3 5 2 2 2 1 7 5 -1 2 3 1 4 5 5 7 4 3 6 8 7 7 6 5
8 8 9 9 10 10 11 12 12 13 13 13 14 13 13 12 11 10 9 9 8 8 8 8 8 9 11 12 13 13 11 8 7 6 5 4 6 5 5 6 7 9 9 9 10 10 8 6 5 4 5 5 6 7 9 9 8 8 8 8 7 5 4 5 5 5 2 4 5 -1 2 8 0 0 5 -1 -0 4 4 6 6 4 4 5 6 7 9 8
7 7 7 7 7 7 8 9 10 11 12 13 15 16 16 16 15 13 12 11 11 10 10 9 8 8 7 8 10 12 11 11 11 9 7 5 5 6 4 3 4 7 9 10 10 10 10 9 8 6 5 5 4 5 5 7 8 8 8 9 8 7 6 7 6 6 5 4 8 5 0 5 3 -0 4 0 -3 -0 3 5 5 5 4 4 4 4 7 8
6 6 5 5 5 6 7 9 10 11 12 13 14 15 16 18 19 18 17 15 14 13 13 12 12 11 10 9 8 8 8 11 13 11 9 8 6 6 5 4 3 2 5 8 10 9 10 11 10 9 7 5 5 5 4 4 6 6 7 7 7 8 8 8 7 6 7 5 8 10 4 6 7 1 1 3 0 -5 -2 2 2 4 5 5 5 4 4 5
6 5 5 5 7 8 10 11 12 13 13 14 15 16 17 18 19 20 20 20 18 17 15 13 13 14 15 15 13 10 7 12 14 10 10 11 9 7 5 5 4 3 3 3 6 9 10 10 10 11 9 7 7 5 5 4 4 4 4 6 7 8 8 8 10 10 9 8 7 8 7 8 8 5 4 3 1 -3 -3 -0 -3 -1 3 5 4 3 3 3
7 6 6 8 10 11 13 13 14 14 14 16 16 16 16 16 17 18 19 21 22 22 19 17 15 12 14 16 17 15 10 17 20 10 8 11 11 10 7 6 5 4 5 3 3 5 8 10 10 12 11 11 9 5 6 5 5 5 3 4 5 6 6 6 8 10 11 11 10 11 12 9 6 9 10 5 1 0 1 -1 -4 -5 -3 1 2 1 1 0
7 8 9 12 14 16 17 17 17 17 17 18 17 15 14 13 13 14 16 19 21 23 23 23 21 16 13 13 17 16 10 19 26 14 9 9 9 12 10 8 6 5 5 5 3 2 4 8 10 11 10 11 10 8 8 6 6 7 4 4 4 3 3 5 5 5 8 11 12 14 13 11 10 11 11 9 5 4 4 1 -2 -3 -6 -4 -1 -1 -1 -1
7 9 11 14 15 16 16 17 16 15 16 15 14 14 14 14 15 15 15 16 17 19 21 22 24 23 18 16 17 13 7 16 27 20 14 11 7 9 11 11 9 7 5 5 5 4 2 2 4 7 9 11 11 10 10 8 8 7 4 5 5 3 3 4 5 4 5 7 10 12 11 11 15 15 12 11 10 8 7 4 3 2 -2 -3 -2 -2 -2 -1
7 9 12 14 15 15 15 15 13 11 12 12 12 13 14 15 16 17 16 14 12 10 13 15 18 20 20 20 15 8 8 14 21 21 19 17 12 8 8 11 10 9 8 5 5 5 4 3 1 3 8 10 10 11 11 11 10 7 4 5 5 4 5 5 4 4 4 4 6 6 8 10 13 16 14 13 14 13 12 10 8 7 4 1 1 1 -0 -1
7 9 11 13 13 13 12 11 10 9 11 12 12 13 14 15 16 17 15 12 10 8 9 11 15 17 20 23 15 9 16 16 14 16 18 17 17 15 9 8 10 10 10 9 6 5 5 6 4 2 3 5 8 10 11 10 10 9 6 6 7 5 7 7 5 5 4 4 3 2 8 11 10 11 9 11 16 15 15 15 13 12 11 8 6 6 5 3
10 11 13 13 11 11 10 9 9 9 11 11 12 13 13 16 18 16 11 8 7 6 8 9 12 14 18 23 20 19 23 19 14 13 15 16 15 18 16 9 9 10 9 10 9 6 5 6 5 4 2 2 4 7 9 10 11 11 8 7 10 8 7 6 6 7 6 6 5 5 10 7 3 4 5 8 12 12 13 14 16 15 15 15 13 10 9 9
13 14 14 14 13 11 11 9 9 9 10 11 13 13 13 17 18 11 7 4 2 3 7 10 12 10 13 19 21 26 26 23 22 16 14 16 12 15 20 15 10 10 9 10 11 9 7 6 6 7 6 2 2 4 7 10 11 11 11 10 11 9 7 6 6 7 6 7 6 7 10 4 0 5 7 5 7 9 9 10 13 13 14 16 17 16 14 13
15 16 15 14 12 12 11 9 8 7 9 13 14 12 15 18 12 5 3 2 3 7 10 13 10 6 12 19 20 26 30 31 35 28 17 14 12 12 18 19 14 12 10 10 10 10 8 7 6 7 7 6 3 3 4 6 8 10 11 11 11 8 7 8 7 6 6 6 6 8 9 5 3 9 11 6 3 6 7 7 9 9 10 12 13 15 15 16
17 16 15 13 12 12 10 7 6 7 11 15 13 14 17 14 5 2 4 4 7 9 11 12 8 7 15 21 23 28 34 41 46 42 29 17 13 11 12 17 17 14 13 13 11 9 10 8 8 7 6 8 6 3 2 3 4 6 8 9 10 9 9 11 8 4 7 7 7 8 5 4 6 9 11 8 5 8 6 5 6 6 7 8 10 10 11 14
18 16 15 11 12 11 6 6 6 8 14 14 14 17 14 7 3 4 4 5 7 8 11 13 11 13 18 20 25 27 29 44 55 54 48 33 18 13 10 13 16 15 14 15 12 8 9 9 9 9 6 7 8 5 4 3 3 4 6 7 8 9 10 14 11 5 8 9 6 6 4 5 7 8 10 9 9 11 9 6 5 5 5 6 7 8 8 10
19 16 13 9 10 7 3 6 8 12 16 15 16 15 8 4 4 4 4 8 10 12 15 16 16 17 18 18 19 16 16 37 54 53 57 52 32 18 10 10 15 16 15 16 15 10 9 9 9 9 8 7 7 8 6 4 3 3 4 5 7 7 7 12 13 7 10 13 8 8 7 6 7 7 9 10 9 11 11 9 6 4 4 4 6 6 7 9
18 15 10 8 7 2 3 8 11 15 17 15 14 9 4 3 2 2 8 14 14 16 15 17 21 14 14 16 9 6 12 34 48 44 51 57 45 28 14 10 13 15 16 17 16 13 10 10 9 9 9 7 7 9 8 4 3 3 4 4 5 8 6 9 14 10 11 17 14 11 11 10 9 8 7 9 10 10 11 11 9 7 4 3 3 4 5 7
17 13 8 7 4 -0 6 11 14 18 16 14 10 4 2 3 2 3 12 18 16 17 16 17 20 12 13 12 2 6 17 35 44 38 47 57 49 38 22 13 13 14 15 17 16 14 13 13 11 10 9 7 7 8 9 9 6 4 4 2 3 6 5 6 12 12 10 15 17 14 14 14 11 9 8 9 9 9 10 11 11 9 7 6 4 3 3 4
17 11 7 5 0 2 11 14 16 18 14 12 7 5 7 6 6 8 15 18 14 17 17 16 16 10 12 11 4 8 16 35 45 34 43 57 52 42 32 21 15 14 15 17 16 14 16 16 11 8 8 7 8 7 8 10 9 6 5 3 3 4 4 4 7 10 10 11 13 12 15 16 13 12 11 9 9 8 8 10 10 11 10 9 7 4 3 1
15 9 6 2 -1 6 13 15 19 15 11 12 10 10 11 10 11 13 16 12 9 14 14 15 16 10 12 12 8 7 11 32 45 33 34 49 51 42 34 30 22 15 18 18 14 13 16 15 9 6 8 10 9 7 8 9 9 10 8 3 4 4 4 5 4 7 9 8 10 10 13 15 13 14 13 10 10 8 6 7 9 10 10 11 10 8 5 2
14 8 5 0 2 9 12 16 19 12 10 12 12 13 12 13 13 14 17 10 4 9 13 17 15 12 14 11 9 7 10 27 37 32 28 35 48 41 26 31 33 20 15 17 13 15 19 13 8 8 10 10 9 8 7 8 8 11 12 7 5 5 3 6 5 6 9 9 10 11 12 14 13 14 13 11 11 10 7 6 7 9 10 10 10 10 8 6
13 7 3 0 5 10 11 16 16 11 11 12 13 15 13 13 11 14 17 10 6 12 19 21 15 16 15 10 16 8 4 23 31 29 29 31 42 44 24 20 36 30 15 15 16 18 21 16 14 15 12 9 9 9 7 7 7 8 13 10 7 7 4 5 5 4 7 8 8 10 11 13 12 13 14 11 11 11 9 6 6 7 9 10 9 9 9 9
11 6 1 2 8 10 11 15 14 9 9 11 13 13 13 12 9 14 15 13 18 16 19 24 20 21 14 9 18 5 -2 21 31 27 31 32 33 43 32 8 22 38 22 16 20 18 16 15 18 16 11 10 10 10 8 7 7 7 11 11 9 10 5 5 6 4 5 7 7 8 11 13 11 11 13 13 12 11 10 9 7 6 7 10 10 9 7 9
10 4 0 3 8 11 12 13 13 9 7 10 10 10 14 12 10 16 14 19 23 11 15 27 24 22 16 12 14 5 5 17 25 27 27 31 29 35 35 9 10 33 27 19 19 17 14 13 17 15 10 11 11 12 10 7 7 7 9 10 11 12 9 7 7 5 5 8 8 7 8 11 12 12 12 13 14 12 10 10 8 7 6 9 10 10 9 9
9 2 0 4 7 10 12 15 15 8 6 9 9 11 16 12 13 16 13 17 16 7 14 19 19 24 16 9 4 4 13 11 15 26 23 27 30 29 30 18 11 18 24 28 18 11 15 14 14 14 13 11 11 13 12 8 8 8 8 8 11 14 14 12 9 7 4 6 9 7 6 8 9 13 11 11 13 12 11 10 10 9 7 9 11 11 11 9
9 2 1 4 7 9 10 17 17 8 6 9 9 14 16 12 14 15 11 11 9 10 15 10 21 33 16 6 7 9 20 18 14 23 25 25 28 28 25 22 17 8 16 32 22 10 16 19 13 9 12 14 10 12 14 11 9 9 8 6 9 13 14 15 13 9 5 4 7 8 8 7 8 12 10 9 12 11 10 9 9 10 8 8 11 12 13 10
9 1 1 4 8 9 9 18 18 8 7 9 9 14 16 14 15 16 13 9 11 18 18 15 27 32 16 11 16 12 18 27 18 12 23 26 23 27 22 16 20 16 21 27 18 16 19 19 16 10 13 15 11 12 13 13 11 9 8 6 8 12 11 14 13 10 7 5 5 8 10 9 8 11 10 9 11 10 10 11 10 10 9 9 10 12 12 11
9 1 2 3 9 10 10 19 18 9 8 8 10 15 16 18 16 13 11 7 14 18 13 18 22 14 11 12 14 10 9 25 25 11 20 26 20 24 20 14 16 18 31 27 10 19 25 17 15 12 14 14 11 13 11 12 14 9 7 6 9 11 10 14 13 9 9 6 4 6 9 8 8 10 9 9 11 11 13 12 10 10 9 7 8 10 13 14
9 2 2 3 9 10 12 21 16 8 9 7 11 15 17 21 16 13 17 16 20 23 20 24 17 6 11 16 17 14 5 20 34 18 17 25 19 19 15 13 13 8 23 29 15 19 22 17 16 11 12 12 9 12 11 11 13 10 9 9 9 10 9 12 12 10 9 5 4 6 9 8 7 8 8 8 10 11 14 14 11 12 10 7 7 8 12 16
8 3 2 4 9 10 15 21 13 7 9 8 12 16 18 18 12 11 19 19 16 18 22 27 21 14 16 18 19 19 8 20 39 25 16 24 20 18 14 9 12 7 10 23 25 22 16 15 17 12 12 12 8 9 10 10 11 8 7 6 6 9 8 8 9 11 9 5 4 5 9 8 6 7 8 8 8 10 13 13 11 12 10 9 7 7 11 15
8 4 2 4 9 11 17 20 10 6 9 10 12 17 19 13 6 6 9 11 10 6 9 17 23 22 23 23 21 24 21 20 34 30 20 24 19 17 17 8 11 14 10 19 25 18 14 15 16 13 12 12 9 9 9 8 8 6 5 4 5 6 5 6 9 11 9 6 5 4 7 8 5 7 8 9 10 11 13 12 11 11 9 9 7 7 12 14
8 4 1 6 9 10 18 19 8 6 10 11 12 16 19 10 5 5 2 5 10 7 5 9 18 20 25 30 20 24 35 26 28 32 23 24 22 15 16 11 10 12 13 27 32 17 13 17 13 10 12 11 8 10 13 12 11 12 12 10 10 10 9 11 13 12 9 7 7 5 7 7 5 7 7 8 12 13 13 12 10 11 10 8 7 7 9 10
8 3 2 7 9 8 18 19 6 6 10 10 12 15 17 12 6 3 2 4 8 11 11 8 12 12 16 27 19 18 30 22 22 30 25 26 24 13 15 13 7 7 11 25 35 22 13 19 17 11 12 12 10 10 12 12 12 13 11 8 9 9 10 12 11 10 9 7 7 6 8 7 5 7 6 7 12 12 13 13 11 12 11 8 7 6 7 8
8 3 3 7 9 8 17 19 7 6 10 10 11 12 16 18 10 2 6 9 4 8 18 17 13 9 8 16 24 24 19 18 27 29 23 29 25 13 15 13 4 8 13 19 32 27 12 16 22 14 12 12 11 13 11 8 11 12 9 7 8 8 7 10 10 9 9 7 7 7 8 8 6 6 6 6 11 11 12 15 13 11 11 8 7 7 9 11
7 4 4 7 10 7 15 20 8 4 12 11 9 8 14 22 17 5 6 11 7 3 15 25 22 20 14 3 15 29 19 23 37 31 27 30 25 18 15 10 7 7 6 13 34 32 12 18 24 11 12 14 8 14 15 8 9 14 14 10 9 8 5 7 9 10 10 8 8 8 7 7 7 8 7 6 10 11 11 15 14 11 10 8 7 7 10 14
7 5 4 7 10 8 13 20 9 4 12 12 9 7 8 16 20 12 4 6 12 6 5 20 23 26 22 -2 2 24 24 26 26 21 35 35 23 22 14 9 15 10 -2 5 31 34 12 20 28 10 12 18 11 12 14 9 7 8 13 13 10 9 7 6 8 8 9 8 9 9 7 7 8 10 9 6 10 13 11 14 14 11 10 8 8 9 11 14
8 5 3 7 11 8 12 19 10 6 13 11 10 9 6 10 14 14 10 7 13 10 3 12 16 19 25 6 1 19 24 22 16 15 33 33 25 23 10 9 18 13 3 -2 18 38 19 11 23 14 10 17 17 15 9 9 8 1 5 11 10 11 10 8 8 7 7 7 8 10 9 7 9 11 9 8 12 15 11 13 14 11 11 10 8 9 11 12
8 3 3 7 12 10 12 18 10 6 13 12 10 10 7 9 10 10 13 12 14 13 6 11 11 13 25 14 7 27 27 14 20 29 23 22 36 29 7 10 13 12 16 -4 -0 37 32 14 19 16 12 15 17 16 9 10 14 6 4 7 7 11 11 7 7 7 7 7 7 10 8 8 13 14 11 9 13 17 13 11 13 12 10 10 8 8 11 11
8 3 4 7 12 13 11 15 12 7 11 12 13 13 6 8 12 9 9 11 17 18 10 11 9 10 27 25 18 35 30 8 20 28 5 12 44 33 8 13 10 9 22 4 -4 21 24 22 29 17 11 15 14 15 13 12 16 13 10 8 6 10 10 7 7 6 6 7 8 8 4 8 17 15 10 12 13 15 15 11 11 13 10 9 8 8 11 11
9 3 5 6 11 15 12 13 13 8 10 11 13 15 7 7 13 11 8 7 11 18 14 12 8 3 18 34 34 35 20 3 15 19 0 11 35 25 11 17 12 11 22 13 9 12 4 18 38 24 11 15 14 16 17 13 13 13 12 9 6 8 9 7 7 5 4 6 8 7 2 6 19 19 10 10 14 14 14 12 11 13 11 9 8 8 10 10
11 4 4 6 9 13 15 16 12 6 10 12 11 12 8 8 11 9 9 8 6 11 12 13 15 6 2 13 24 32 24 12 17 20 11 14 23 19 14 17 16 17 18 14 19 18 1 7 31 25 11 16 20 19 17 13 12 12 11 10 7 6 7 6 7 8 5 4 6 6 6 8 14 21 15 8 13 16 13 13 13 13 12 10 8 8 9 8
12 4 3 7 8 11 15 19 15 6 8 13 11 9 7 10 13 9 7 8 8 10 11 12 18 17 7 -4 -4 10 24 25 23 21 17 19 27 26 16 12 17 18 15 13 20 23 6 2 24 23 5 11 22 18 15 14 11 10 9 10 10 7 6 4 6 9 5 5 5 -0 14 30 18 14 19 11 10 17 14 13 14 12 12 10 8 9 8 8
13 4 3 6 8 10 14 18 17 9 7 14 13 9 9 10 11 12 11 9 6 8 12 14 14 16 16 8 -1 -0 10 17 16 17 22 23 26 29 20 12 15 18 15 13 17 23 9 -2 21 30 10 8 16 12 15 14 8 8 7 7 10 9 8 6 7 9 4 9 8 -15 -4 36 30 10 18 16 9 15 17 14 14 11 10 9 9 10 9 7
14 5 2 6 7 11 13 14 17 11 7 14 14 9 11 9 6 10 11 9 7 6 11 13 13 17 16 9 8 9 10 10 5 8 22 27 22 25 25 18 16 16 14 12 14 17 8 -0 20 35 22 17 19 15 17 17 9 8 7 7 9 8 8 7 6 10 6 7 13 -10 -19 15 26 12 18 18 9 13 17 14 12 11 10 10 9 9 8 7
15 5 2 5 6 11 14 13 16 12 6 13 14 9 11 12 13 8 1 11 22 13 10 13 15 20 16 2 1 8 13 16 9 1 13 27 26 23 25 21 18 15 12 14 14 8 5 9 22 26 14 14 26 24 18 17 12 8 7 7 8 6 8 8 3 8 8 2 9 11 2 11 19 13 16 18 12 13 16 13 11 9 10 10 9 8 7 6
15 6 2 4 5 11 14 13 16 12 7 12 11 8 9 10 16 12 -2 9 21 11 10 17 17 21 20 10 8 12 13 15 12 6 13 24 23 20 22 21 19 18 13 14 15 5 5 15 18 16 10 9 19 22 18 19 15 9 7 7 7 7 7 8 3 4 8 1 1 13 18 18 19 14 13 16 14 14 15 12 11 10 10 9 8 9 7 5
15 5 1 3 5 11 14 13 16 13 8 11 9 8 10 9 14 13 -1 -0 10 11 16 17 14 18 14 3 4 7 8 9 6 8 19 25 18 15 19 17 15 17 12 13 17 5 3 15 14 13 20 17 12 14 19 21 18 13 11 8 8 10 7 7 6 5 7 4 3 11 16 18 18 15 14 15 14 15 15 13 12 11 10 9 7 7 7 5
18 7 1 2 3 12 17 13 14 14 9 9 9 6 8 14 18 12 2 7 17 20 21 15 9 11 7 1 0 1 12 19 11 9 20 22 15 13 16 14 14 16 10 14 20 1 -5 16 19 11 22 25 14 14 19 18 16 16 14 10 10 11 10 9 8 6 7 9 11 12 10 12 16 15 14 15 15 17 16 11 12 11 8 7 7 8 7 5
20 9 3 2 2 12 21 14 11 15 11 8 10 7 10 21 23 11 6 16 23 20 18 15 9 8 7 7 8 13 23 25 15 14 21 21 16 16 17 13 13 14 10 13 18 3 -4 14 18 12 22 26 15 14 18 17 15 15 15 13 11 10 12 12 10 9 8 9 13 14 9 10 15 15 15 15 15 17 15 11 11 9 7 6 7 7 6 5
19 10 2 1 2 12 22 16 10 14 11 9 9 4 10 23 23 14 9 12 17 17 16 14 7 4 2 2 11 27 29 21 19 22 24 23 19 16 16 13 11 12 9 8 13 8 3 10 13 13 23 27 19 14 15 16 14 13 15 14 10 10 14 13 11 12 10 7 11 12 9 9 12 13 15 15 14 13 12 10 8 6 5 5 5 6 7 10
Height
5735 5734 5733 5732 5731 5730 5729 5728 5727 5726 5725 5725 5724 5724 5723 5723 5723 5723 5723 5723 5724 5724 5725 5726 5727 5727 5729 5730 5731 5733 5734 5736 5737 5738 5740 5744 5746 5748 5752 5755 5758 5761 5764 5767 5770 5773 5776 5779 5782 5785 5788 5790 5793 5795 5798 5801 5804 5806 5806 5806 5806 5809 5813 5818 5822 5825 5831 5839 5844 5846 5846 5846 5847 5850 5851 5851 5852 5852 5853 5855 5856 5858 5860 5861 5863 5864 5866 5868
5732 5731 5730 5728 5727 5726 5725 5724 5723 5722 5720 5719 5719 5718 5717 5717 5717 5717 5717 5717 5717 5717 5718 5719 5719 5720 5721 5722 5723 5725 5727 5728 5730 5731 5734 5737 5739 5741 5745 5749 5752 5754 5757 5760 5763 5766 5769 5772 5776 5779 5782 5784 5786 5789 5792 5795 5798 5800 5801 5800 5801 5806 5810 5815 5818 5820 5827 5835 5840 5843 5842 5841 5842 5845 5847 5847 5849 5850 5851 5852 5853 5855 5857 5859 5860 5861 5863 5865
5729 5727 5726 5725 5723 5722 5721 5719 5718 5717 5715 5714 5713 5712 5711 5711 5710 5710 5710 5710 5710 5710 5710 5711 5712 5712 5713 5714 5715 5716 5718 5720 5721 5724 5727 5730 5732 5734 5738 5742 5745 5748 5750 5753 5757 5760 5763 5766 5769 5773 5776 5777 5780 5783 5785 5788 5791 5794 5796 5794 5797 5804 5807 5811 5813 5816 5823 5829 5835 5839 5838 5837 5839 5841 5843 5844 5846 5847 5848 5849 5851 5853 5854 5855 5856 5858 5860 5863
5724 5723 5722 5720 5718 5717 5715 5714 5713 5711 5710 5709 5707 5706 5705 5704 5704 5703 5703 5702 5702 5702 5703 5703 5704 5705 5705 5706 5707 5708 5710 5711 5712 5716 5718 5722 5724 5727 5730 5734 5738 5741 5743 5746 5750 5753 5756 5759 5763 5767 5769 5771 5774 5777 5779 5782 5785 5788 5789 5790 5796 5801 5803 5805 5806 5811 5818 5823 5830 5834 5834 5833 5834 5837 5838 5841 5842 5843 5845 5846 5848 5850 5850 5850 5853 5856 5857 5860
5720 5718 5716 5714 5713 5711 5709 5708 5706 5705 5703 5702 5701 5700 5699 5698 5697 5696 5695 5694 5694 5694 5694 5695 5695 5696 5697 5697 5698 5700 5701 5702 5703 5706 5710 5713 5716 5718 5722 5726 5731 5734 5736 5739 5743 5746 5749 5753 5757 5760 5762 5765 5768 5771 5774 5777 5781 5783 5783 5788 5794 5795 5796 5798 5800 5807 5814 5819 5824 5829 5831 5829 5829 5831 5834 5837 5837 5840 5842 5843 5845 5845 5845 5847 5851 5853 5855 5857
5715 5713 5710 5708 5706 5704 5703 5701 5699 5698 5696 5695 5693 5692 5691 5691 5690 5688 5688 5686 5686 5685 5685 5686 5686 5688 5688 5689 5690 5691 5692 5692 5692 5696 5701 5703 5706 5710 5713 5717 5722 5727 5729 5732 5736 5739 5743 5746 5750 5753 5757 5760 5762 5766 5770 5773 5776 5779 5780 5785 5789 5787 5789 5793 5796 5803 5810 5813 5818 5824 5827 5824 5822 5826 5830 5831 5833 5836 5837 5838 5840 5841 5842 5845 5848 5850 5852 5854
5710 5707 5705 5703 5700 5698 5696 5694 5692 5690 5688 5687 5685 5684 5683 5682 5682 5681 5680 5678 5677 5676 5676 5676 5677 5678 5678 5679 5681 5682 5683 5682 5681 5686 5691 5693 5696 5701 5704 5708 5713 5719 5722 5725 5728 5733 5736 5739 5743 5747 5751 5754 5756 5761 5765 5767 5770 5774 5776 5780 5782 5780 5785 5790 5792 5798 5804 5808 5812 5819 5821 5817 5818 5821 5824 5827 5829 5832 5832 5833 5837 5838 5840 5842 5845 5847 5849 5852
5704 5702 5699 5697 5694 5692 5689 5687 5685 5682 5681 5679 5677 5676 5674 5673 5672 5672 5671 5670 5669 5668 5668 5667 5667 5668 5668 5669 5671 5673 5675 5672 5670 5675 5679 5683 5687 5691 5694 5699 5704 5710 5714 5717 5721 5725 5729 5732 5737 5741 5744 5748 5751 5755 5758 5762 5765 5768 5771 5773 5773 5775 5781 5786 5787 5793 5799 5803 5807 5812 5814 5813 5815 5816 5818 5824 5826 5827 5827 5829 5833 5835 5837 5838 5841 5844 5846 5849
5699 5696 5694 5691 5688 5686 5683 5681 5679 5676 5675 5673 5671 5670 5668 5666 5664 5663 5662 5661 5660 5660 5660 5659 5659 5659 5659 5660 5661 5665 5667 5661 5659 5663 5668 5674 5678 5681 5685 5689 5694 5700 5705 5710 5713 5718 5723 5727 5731 5734 5737 5741 5744 5748 5752 5757 5760 5761 5766 5767 5766 5771 5779 5781 5783 5788 5793 5797 5801 5805 5808 5809 5811 5811 5814 5820 5821 5821 5822 5826 5829 5831 5833 5835 5837 5840 5842 5845
5694 5691 5688 5685 5682 5679 5677 5675 5673 5671 5669 5668 5666 5665 5663 5661 5659 5657 5655 5654 5653 5652 5651 5651 5651 5651 5652 5651 5652 5656 5655 5650 5651 5654 5657 5663 5667 5671 5675 5680 5685 5690 5696 5702 5705 5710 5715 5719 5723 5726 5731 5735 5738 5743 5747 5752 5753 5754 5760 5761 5761 5769 5775 5776 5778 5782 5787 5791 5796 5800 5803 5805 5806 5806 5809 5814 5814 5816 5820 5824 5826 5827 5830 5831 5833 5836 5838 5841
5689 5685 5682 5679 5676 5674 5672 5669 5667 5665 5664 5662 5661 5659 5657 5655 5653 5652 5650 5648 5646 5646 5645 5644 5643 5643 5643 5643 5645 5645 5639 5638 5643 5645 5646 5650 5656 5661 5665 5670 5676 5681 5687 5693 5697 5702 5707 5711 5717 5721 5726 5729 5732 5738 5741 5745 5747 5748 5755 5758 5758 5764 5768 5769 5772 5777 5782 5786 5791 5796 5797 5799 5800 5801 5805 5808 5810 5815 5819 5820 5822 5823 5826 5828 5829 5831 5834 5838
5685 5681 5678 5675 5672 5669 5667 5665 5663 5661 5658 5657 5655 5653 5651 5649 5647 5645 5643 5642 5641 5640 5638 5636 5635 5635 5634 5635 5637 5632 5626 5628 5633 5635 5636 5638 5644 5650 5656 5661 5666 5672 5678 5684 5689 5693 5699 5705 5711 5716 5718 5721 5726 5731 5733 5739 5741 5743 5750 5753 5754 5758 5760 5763 5768 5773 5777 5781 5787 5791 5791 5793 5795 5797 5803 5805 5808 5814 5816 5815 5817 5819 5822 5825 5826 5828 5831 5834
5682 5678 5674 5671 5668 5665 5663 5661 5659 5656 5654 5651 5649 5647 5645 5643 5641 5639 5637 5636 5635 5633 5631 5629 5627 5625 5625 5626 5625 5619 5617 5618 5621 5625 5627 5627 5633 5640 5646 5652 5657 5663 5669 5675 5681 5685 5691 5697 5703 5707 5710 5716 5721 5723 5728 5734 5736 5738 5744 5748 5749 5751 5753 5758 5764 5768 5772 5776 5781 5785 5785 5788 5793 5796 5800 5803 5806 5810 5811 5811 5813 5816 5819 5821 5823 5825 5827 5830
5678 5674 5671 5667 5665 5662 5659 5657 5655 5652 5649 5646 5644 5642 5639 5637 5635 5633 5632 5630 5628 5626 5624 5622 5619 5617 5616 5616 5612 5606 5606 5606 5608 5615 5618 5619 5625 5630 5636 5643 5649 5654 5661 5667 5672 5677 5683 5689 5695 5698 5703 5709 5713 5717 5724 5728 5731 5734 5738 5742 5743 5744 5749 5753 5758 5763 5768 5771 5777 5781 5780 5784 5790 5791 5794 5799 5803 5806 5807 5808 5810 5813 5816 5818 5820 5822 5823 5826
5673 5670 5666 5663 5661 5658 5656 5653 5651 5648 5645 5641 5639 5636 5634 5632 5630 5628 5626 5624 5621 5618 5616 5614 5612 5609 5607 5606 5600 5595 5594 5593 5597 5605 5609 5610 5615 5619 5625 5633 5640 5646 5651 5657 5663 5670 5675 5681 5686 5691 5697 5702 5706 5713 5719 5721 5725 5728 5730 5735 5737 5740 5744 5747 5752 5759 5763 5767 5773 5775 5774 5779 5785 5786 5789 5797 5801 5803 5804 5805 5807 5809 5812 5814 5816 5818 5819 5821
5669 5665 5662 5659 5657 5654 5652 5649 5646 5643 5640 5637 5634 5632 5629 5628 5626 5623 5621 5617 5614 5611 5609 5608 5605 5602 5598 5595 5589 5585 5584 5583 5584 5590 5596 5600 5603 5608 5615 5623 5630 5636 5641 5648 5655 5661 5667 5672 5678 5684 5689 5693 5699 5707 5711 5713 5717 5721 5724 5729 5732 5736 5740 5741 5747 5756 5759 5763 5767 5767 5768 5774 5780 5782 5788 5795 5798 5799 5800 5802 5804 5806 5809 5811 5813 5814 5816 5817
5664 5661 5657 5655 5653 5651 5648 5645 5642 5639 5636 5633 5630 5628 5625 5623 5621 5619 5616 5612 5608 5605 5603 5601 5598 5595 5591 5586 5581 5578 5575 5573 5572 5575 5581 5586 5592 5598 5605 5613 5620 5626 5632 5638 5645 5652 5658 5664 5670 5676 5680 5685 5692 5699 5702 5704 5709 5715 5718 5723 5728 5732 5736 5736 5742 5750 5755 5758 5761 5762 5764 5771 5777 5781 5786 5791 5793 5793 5795 5798 5800 5803 5805 5807 5809 5811 5812 5814
5660 5657 5654 5652 5650 5647 5645 5641 5638 5635 5632 5629 5627 5624 5622 5620 5617 5615 5612 5608 5603 5599 5597 5595 5591 5588 5582 5578 5576 5572 5567 5563 5560 5560 5563 5569 5577 5585 5593 5602 5609 5617 5623 5628 5636 5643 5650 5655 5661 5667 5672 5678 5685 5690 5694 5699 5706 5711 5713 5719 5723 5724 5729 5733 5736 5745 5753 5755 5756 5758 5761 5769 5775 5778 5782 5785 5788 5789 5791 5794 5796 5798 5801 5802 5805 5807 5808 5811
5656 5653 5651 5648 5646 5644 5641 5638 5634 5631 5628 5625 5623 5620 5618 5616 5613 5611 5608 5604 5599 5593 5589 5587 5586 5583 5576 5570 5568 5566 5560 5554 5550 5549 5550 5555 5564 5572 5580 5590 5599 5607 5613 5619 5627 5635 5642 5647 5651 5657 5664 5672 5678 5684 5692 5697 5702 5705 5709 5716 5718 5719 5728 5734 5735 5744 5753 5752 5752 5755 5758 5765 5771 5773 5777 5780 5782 5784 5786 5789 5791 5793 5796 5798 5800 5803 5806 5808
5653 5650 5647 5645 5643 5640 5637 5634 5630 5627 5624 5621 5619 5616 5613 5611 5608 5606 5604 5600 5594 5588 5583 5579 5578 5577 5572 5566 5561 5559 5555 5547 5543 5542 5541 5546 5554 5561 5569 5579 5588 5595 5603 5612 5619 5627 5634 5637 5643 5653 5662 5670 5674 5681 5689 5691 5695 5700 5704 5710 5714 5718 5727 5732 5734 5741 5748 5749 5748 5750 5754 5760 5766 5769 5772 5774 5777 5779 5780 5783 5786 5789 5793 5795 5797 5800 5803 5805
5649 5647 5644 5642 5639 5636 5633 5629 5626 5623 5620 5617 5615 5612 5609 5606 5603 5600 5598 5596 5590 5583 5579 5575 5571 5569 5566 5562 5557 5553 5549 5542 5538 5536 5535 5538 5545 5550 5558 5568 5577 5585 5596 5605 5611 5618 5623 5628 5641 5653 5658 5664 5668 5676 5684 5685 5690 5695 5698 5706 5712 5717 5722 5726 5731 5736 5742 5744 5743 5746 5749 5754 5761 5765 5767 5768 5770 5773 5775 5779 5783 5786 5789 5791 5793 5796 5799 5801
5646 5643 5641 5639 5635 5632 5629 5625 5622 5619 5616 5613 5610 5607 5604 5601 5598 5594 5591 5591 5586 5578 5574 5571 5566 5563 5560 5556 5552 5549 5544 5538 5534 5532 5530 5532 5536 5543 5550 5558 5567 5578 5588 5595 5600 5606 5613 5625 5640 5646 5648 5655 5661 5670 5677 5678 5684 5690 5695 5705 5709 5713 5719 5721 5726 5733 5736 5738 5740 5742 5745 5749 5756 5761 5762 5762 5764 5768 5771 5775 5779 5783 5785 5788 5790 5792 5795 5797
5643 5641 5638 5635 5632 5628 5625 5621 5618 5615 5612 5609 5606 5602 5599 5596 5592 5589 5585 5584 5581 5574 5569 5565 5561 5558 5555 5551 5548 5545 5540 5535 5531 5529 5527 5528 5532 5538 5544 5552 5561 5571 5578 5584 5593 5601 5612 5626 5633 5635 5640 5648 5654 5663 5669 5672 5679 5687 5692 5700 5704 5709 5715 5716 5722 5730 5731 5734 5738 5739 5742 5746 5751 5756 5757 5756 5759 5765 5767 5770 5775 5778 5781 5784 5786 5788 5791 5794
5640 5638 5635 5632 5629 5625 5621 5617 5614 5612 5609 5605 5602 5598 5594 5591 5587 5584 5580 5577 5575 5569 5564 5561 5557 5553 5550 5547 5544 5541 5537 5533 5529 5526 5525 5527 5530 5534 5541 5549 5556 5563 5570 5579 5590 5599 5611 5621 5622 5626 5633 5639 5647 5656 5663 5668 5675 5682 5687 5694 5699 5704 5709 5713 5719 5725 5727 5730 5734 5736 5738 5743 5747 5751 5752 5752 5756 5761 5763 5766 5771 5774 5777 5780 5782 5784 5786 5790
5637 5635 5632 5629 5626 5622 5617 5614 5611 5608 5605 5601 5598 5594 5590 5586 5583 5578 5575 5572 5569 5564 5560 5555 5552 5549 5546 5543 5540 5537 5534 5531 5527 5525 5525 5527 5529 5532 5538 5545 5551 5558 5567 5576 5585 5593 5603 5608 5611 5619 5626 5632 5643 5651 5658 5664 5671 5677 5682 5688 5695 5698 5703 5710 5714 5720 5724 5725 5729 5732 5734 5739 5742 5746 5749 5749 5753 5757 5759 5763 5766 5770 5774 5776 5779 5781 5783 5787
5635 5632 5629 5626 5623 5619 5614 5611 5608 5605 5602 5598 5594 5590 5586 5582 5578 5574 5570 5567 5563 5559 5555 5551 5547 5544 5542 5540 5537 5534 5532 5529 5527 5525 5525 5527 5529 5531 5536 5542 5548 5556 5564 5571 5577 5585 5593 5597 5605 5614 5620 5630 5640 5646 5653 5660 5666 5672 5678 5685 5690 5693 5700 5707 5711 5716 5721 5722 5725 5728 5731 5735 5738 5742 5746 5747 5749 5753 5755 5759 5762 5766 5770 5773 5776 5778 5781 5784
5632 5629 5626 5623 5620 5617 5612 5608 5605 5602 5599 5595 5590 5586 5582 5578 5574 5570 5566 5563 5560 5556 5552 5548 5544 5541 5539 5536 5534 5532 5530 5528 5526 5525 5525 5527 5529 5531 5536 5541 5547 5553 5559 5564 5570 5578 5586 5591 5599 5608 5617 5627 5635 5642 5650 5656 5663 5668 5674 5681 5686 5691 5698 5704 5708 5712 5717 5718 5719 5723 5728 5732 5734 5738 5742 5743 5746 5749 5751 5754 5758 5762 5766 5770 5774 5776 5779 5782
5629 5627 5624 5620 5617 5613 5610 5606 5602 5599 5596 5592 5588 5583 5579 5574 5570 5567 5563 5559 5556 5552 5549 5545 5541 5539 5537 5534 5532 5531 5528 5527 5525 5524 5525 5526 5528 5531 5536 5542 5547 5552 5556 5562 5569 5577 5583 5587 5596 5606 5615 5623 5630 5639 5646 5652 5659 5664 5669 5677 5683 5689 5696 5701 5705 5709 5713 5713 5715 5721 5726 5728 5730 5734 5738 5739 5742 5745 5746 5751 5755 5759 5763 5768 5772 5774 5776 5778
5627 5624 5621 5618 5614 5610 5607 5603 5599 5596 5593 5589 5585 5580 5576 5572 5568 5564 5560 5557 5553 5549 5545 5542 5538 5536 5534 5532 5530 5528 5527 5525 5524 5523 5524 5525 5527 5530 5535 5540 5546 5551 5555 5562 5568 5574 5578 5583 5594 5604 5611 5618 5626 5634 5639 5647 5655 5657 5664 5674 5680 5685 5691 5696 5701 5705 5707 5708 5712 5719 5722 5724 5727 5731 5734 5736 5738 5741 5744 5748 5752 5756 5761 5765 5769 5770 5773 5775
5624 5622 5619 5615 5611 5608 5604 5600 5597 5594 5590 5586 5582 5578 5574 5570 5566 5561 5558 5554 5550 5546 5542 5539 5536 5533 5532 5530 5528 5526 5525 5523 5522 5522 5522 5524 5526 5530 5534 5539 5544 5550 5555 5560 5564 5568 5573 5579 5590 5599 5606 5614 5622 5627 5634 5643 5647 5650 5661 5672 5676 5681 5687 5692 5697 5700 5701 5704 5710 5715 5717 5720 5723 5727 5731 5732 5735 5740 5743 5746 5749 5753 5757 5761 5765 5767 5770 5773
5622 5619 5617 5613 5609 5605 5601 5598 5595 5591 5588 5584 5580 5576 5572 5568 5564 5559 5555 5552 5548 5544 5540 5537 5534 5531 5529 5527 5525 5523 5522 5521 5520 5520 5520 5522 5525 5528 5532 5537 5542 5547 5552 5557 5560 5563 5569 5576 5586 5595 5602 5609 5616 5622 5631 5638 5641 5648 5660 5668 5672 5677 5683 5688 5692 5695 5697 5701 5709 5712 5713 5716 5720 5724 5727 5728 5733 5739 5741 5744 5747 5750 5755 5758 5762 5764 5767 5771
5619 5617 5614 5611 5607 5603 5599 5596 5593 5589 5586 5582 5578 5574 5570 5567 5563 5558 5554 5551 5547 5543 5539 5536 5532 5529 5526 5524 5522 5521 5519 5518 5517 5517 5519 5521 5524 5527 5532 5536 5541 5546 5550 5554 5557 5561 5567 5574 5584 5593 5598 5604 5610 5618 5626 5632 5637 5647 5656 5662 5667 5673 5679 5683 5687 5691 5694 5699 5704 5707 5708 5712 5716 5720 5722 5725 5731 5736 5738 5741 5744 5748 5752 5756 5759 5762 5765 5768
5617 5615 5612 5609 5605 5601 5597 5594 5591 5587 5584 5580 5577 5573 5569 5565 5561 5557 5554 5550 5547 5543 5539 5535 5531 5527 5524 5522 5520 5518 5517 5516 5515 5515 5517 5519 5522 5526 5530 5535 5541 5547 5551 5553 5555 5560 5566 5573 5580 5588 5594 5600 5608 5616 5623 5629 5636 5644 5651 5658 5664 5668 5673 5679 5683 5687 5691 5695 5699 5702 5704 5708 5712 5716 5719 5724 5729 5732 5735 5738 5741 5745 5748 5752 5755 5758 5762 5765
5616 5613 5610 5607 5603 5599 5596 5593 5589 5586 5583 5579 5575 5571 5568 5564 5561 5557 5554 5550 5546 5543 5539 5535 5531 5527 5524 5521 5519 5516 5514 5514 5514 5514 5515 5518 5520 5524 5528 5533 5539 5545 5551 5554 5555 5560 5565 5571 5578 5585 5592 5599 5608 5616 5623 5630 5636 5642 5649 5655 5661 5666 5671 5676 5680 5683 5688 5691 5694 5698 5701 5705 5709 5712 5717 5723 5727 5729 5732 5735 5738 5741 5744 5748 5751 5755 5759 5762
5614 5611 5608 5605 5602 5598 5595 5591 5588 5585 5581 5578 5574 5570 5567 5563 5560 5557 5554 5550 5546 5542 5538 5535 5531 5527 5524 5521 5519 5516 5514 5513 5513 5513 5515 5517 5520 5523 5528 5533 5538 5542 5547 5552 5556 5560 5566 5573 5579 5586 5592 5599 5607 5614 5620 5627 5634 5639 5644 5650 5657 5664 5669 5673 5677 5680 5685 5687 5688 5695 5700 5702 5704 5708 5716 5722 5724 5726 5730 5733 5735 5739 5742 5746 5749 5753 5756 5759
5612 5610 5607 5604 5600 5596 5593 5590 5586 5583 5580 5576 5572 5569 5566 5562 5559 5556 5553 5550 5546 5542 5538 5534 5531 5527 5524 5521 5519 5516 5514 5513 5512 5513 5514 5516 5519 5523 5527 5532 5537 5541 5546 5552 5557 5561 5567 5572 5577 5584 5591 5597 5605 5611 5617 5623 5630 5637 5642 5649 5656 5661 5664 5669 5674 5677 5681 5683 5687 5695 5700 5700 5701 5708 5716 5721 5722 5724 5728 5730 5733 5737 5740 5743 5747 5751 5754 5756
5611 5608 5605 5602 5598 5595 5591 5588 5585 5582 5579 5575 5572 5568 5565 5562 5558 5555 5552 5549 5545 5541 5538 5534 5531 5528 5525 5522 5520 5517 5515 5513 5512 5513 5514 5516 5519 5522 5527 5531 5536 5541 5547 5552 5556 5562 5568 5572 5577 5584 5590 5595 5602 5609 5614 5620 5627 5634 5641 5647 5653 5655 5659 5665 5671 5675 5679 5683 5688 5694 5697 5697 5700 5707 5714 5717 5719 5722 5725 5728 5731 5734 5737 5741 5746 5749 5752 5754
5609 5607 5604 5600 5597 5593 5590 5587 5584 5581 5578 5575 5571 5568 5564 5561 5558 5555 5552 5549 5545 5542 5538 5534 5531 5528 5526 5523 5521 5519 5516 5514 5514 5514 5515 5517 5520 5523 5527 5531 5535 5541 5546 5551 5555 5562 5568 5572 5578 5584 5589 5595 5601 5605 5611 5617 5623 5631 5638 5643 5647 5651 5657 5663 5667 5671 5676 5681 5686 5691 5693 5694 5698 5705 5710 5714 5717 5719 5722 5725 5728 5732 5736 5740 5744 5747 5749 5752
5609 5606 5603 5599 5596 5592 5589 5586 5583 5580 5577 5574 5571 5568 5564 5561 5558 5555 5552 5549 5546 5542 5539 5535 5532 5529 5527 5525 5523 5520 5518 5516 5516 5516 5517 5519 5521 5524 5528 5531 5536 5541 5546 5551 5557 5562 5567 5572 5578 5584 5589 5594 5599 5602 5608 5614 5619 5626 5632 5638 5644 5651 5657 5662 5666 5670 5674 5678 5683 5687 5690 5691 5696 5703 5708 5712 5715 5717 5719 5722 5726 5730 5735 5739 5742 5744 5747 5749
5607 5605 5602 5599 5595 5592 5588 5585 5583 5580 5577 5574 5571 5568 5565 5561 5558 5555 5552 5549 5546 5543 5540 5536 5533 5531 5528 5526 5525 5522 5520 5519 5518 5519 5520 5522 5524 5526 5529 5533 5538 5542 5547 5552 5557 5562 5568 5574 5578 5582 5587 5592 5597 5602 5608 5613 5619 5624 5629 5635 5642 5649 5655 5661 5665 5669 5673 5677 5682 5686 5688 5690 5695 5702 5707 5710 5713 5715 5717 5720 5724 5729 5733 5736 5738 5741 5744 5746
5606 5604 5601 5598 5595 5591 5588 5585 5582 5579 5577 5574 5571 5568 5565 5562 5559 5556 5553 5550 5547 5544 5541 5538 5536 5533 5530 5528 5526 5523 5522 5522 5521 5522 5523 5525 5526 5529 5532 5536 5540 5544 5548 5553 5558 5562 5569 5575 5578 5582 5588 5593 5597 5603 5608 5613 5620 5625 5628 5633 5640 5647 5653 5658 5661 5666 5671 5675 5680 5684 5686 5689 5694 5700 5705 5707 5709 5712 5714 5718 5722 5726 5729 5732 5735 5738 5741 5744
5605 5603 5601 5598 5595 5592 5588 5585 5582 5579 5576 5573 5571 5568 5565 5562 5559 5556 5554 5551 5548 5546 5543 5540 5538 5536 5533 5530 5527 5525 5524 5524 5524 5525 5526 5527 5530 5533 5536 5539 5543 5546 5551 5556 5560 5564 5570 5576 5580 5584 5589 5593 5596 5601 5606 5612 5619 5624 5628 5634 5639 5644 5650 5655 5660 5665 5669 5673 5678 5681 5684 5687 5693 5699 5702 5703 5707 5710 5712 5716 5720 5723 5726 5729 5733 5736 5739 5742
5605 5603 5600 5598 5595 5592 5588 5585 5581 5579 5576 5573 5571 5568 5565 5562 5559 5557 5555 5553 5550 5547 5544 5542 5539 5538 5536 5533 5530 5528 5527 5526 5527 5528 5529 5530 5532 5535 5537 5541 5545 5549 5553 5557 5562 5566 5571 5576 5580 5583 5588 5591 5595 5600 5605 5611 5616 5621 5628 5634 5639 5643 5648 5653 5659 5663 5668 5673 5678 5681 5684 5687 5692 5697 5699 5701 5704 5707 5710 5714 5718 5721 5724 5727 5730 5733 5737 5740
5604 5602 5600 5597 5594 5591 5588 5585 5582 5579 5576 5573 5570 5568 5565 5563 5560 5557 5555 5553 5551 5548 5546 5544 5541 5539 5537 5535 5533 5532 5530 5530 5530 5531 5532 5532 5534 5537 5539 5543 5546 5550 5554 5558 5563 5567 5572 5577 5579 5581 5584 5588 5592 5597 5602 5607 5614 5621 5627 5633 5637 5642 5647 5651 5655 5659 5665 5671 5675 5680 5684 5686 5690 5694 5696 5698 5701 5704 5708 5712 5715 5719 5722 5725 5728 5731 5734 5737
5603 5601 5599 5596 5593 5590 5587 5585 5582 5580 5577 5574 5571 5568 5566 5563 5561 5558 5556 5553 5551 5549 5547 5545 5543 5541 5539 5538 5536 5535 5534 5533 5533 5534 5534 5535 5536 5539 5541 5544 5547 5551 5555 5558 5562 5567 5572 5577 5580 5582 5585 5589 5594 5600 5606 5612 5617 5622 5627 5631 5636 5642 5647 5651 5655 5659 5664 5669 5673 5679 5683 5685 5688 5692 5694 5696 5699 5702 5706 5710 5713 5716 5719 5723 5726 5729 5732 5735
5603 5601 5598 5596 5592 5589 5586 5584 5581 5579 5577 5574 5572 5569 5566 5564 5561 5559 5556 5554 5552 5550 5548 5547 5545 5543 5541 5540 5539 5538 5537 5537 5537 5537 5537 5537 5538 5540 5543 5545 5548 5552 5555 5559 5562 5568 5573 5578 5582 5586 5592 5598 5602 5605 5610 5614 5616 5619 5624 5629 5634 5640 5645 5650 5654 5659 5664 5668 5673 5678 5681 5683 5687 5690 5692 5694 5697 5700 5704 5708 5711 5714 5718 5721 5724 5727 5730 5733
5602 5600 5598 5596 5592 5589 5586 5583 5581 5579 5577 5574 5572 5569 5567 5565 5563 5560 5557 5555 5553 5551 5550 5548 5547 5545 5543 5542 5541 5541 5540 5540 5540 5539 5539 5539 5540 5542 5545 5547 5550 5553 5557 5561 5565 5569 5574 5579 5583 5587 5592 5597 5600 5603 5606 5609 5613 5618 5622 5626 5631 5637 5642 5647 5652 5657 5662 5667 5672 5676 5679 5682 5685 5687 5690 5693 5695 5699 5702 5706 5709 5713 5716 5719 5723 5726 5729 5732
5601 5599 5597 5595 5592 5589 5585 5583 5581 5579 5577 5574 5572 5570 5568 5565 5563 5561 5559 5556 5554 5552 5551 5550 5548 5547 5545 5544 5543 5543 5542 5542 5542 5541 5541 5541 5542 5545 5548 5550 5552 5555 5558 5563 5567 5572 5575 5579 5584 5588 5590 5593 5597 5602 5608 5612 5616 5620 5623 5626 5630 5635 5640 5645 5649 5654 5659 5664 5669 5674 5677 5681 5684 5686 5688 5691 5694 5698 5701 5704 5708 5711 5714 5718 5721 5724 5728 5730
5600 5598 5596 5594 5592 5589 5585 5583 5581 5579 5577 5575 5572 5570 5568 5566 5563 5561 5560 5557 5555 5553 5552 5551 5550 5549 5547 5546 5545 5545 5544 5545 5544 5544 5544 5544 5545 5547 5550 5553 5555 5558 5561 5564 5569 5573 5577 5580 5584 5588 5591 5594 5597 5602 5608 5613 5618 5622 5626 5630 5633 5636 5640 5644 5649 5654 5659 5664 5668 5672 5676 5679 5682 5684 5687 5690 5693 5697 5700 5703 5707 5710 5713 5716 5720 5723 5726 5729
5600 5598 5596 5593 5591 5589 5586 5583 5581 5579 5577 5575 5573 5571 5569 5566 5564 5562 5560 5558 5556 5554 5553 5552 5552 5550 5549 5548 5547 5546 5546 5546 5546 5546 5546 5547 5547 5549 5552 5555 5557 5560 5563 5566 5570 5574 5578 5582 5585 5589 5593 5597 5600 5603 5607 5612 5617 5623 5627 5630 5634 5637 5641 5646 5650 5655 5660 5665 5669 5672 5675 5678 5681 5684 5686 5689 5693 5696 5699 5703 5706 5709 5712 5715 5718 5722 5725 5727
5600 5598 5596 5593 5591 5589 5586 5583 5581 5580 5578 5575 5573 5572 5570 5567 5564 5562 5561 5559 5557 5555 5554 5553 5553 5552 5551 5549 5548 5547 5547 5547 5547 5547 5548 5549 5549 5551 5554 5557 5560 5563 5566 5569 5572 5575 5579 5583 5587 5591 5595 5598 5601 5604 5608 5612 5616 5621 5625 5629 5633 5637 5642 5647 5651 5655 5659 5664 5668 5672 5675 5678 5680 5683 5685 5688 5692 5695 5698 5702 5705 5708 5712 5715 5718 5721 5723 5726
5599 5597 5595 5593 5591 5589 5586 5584 5581 5580 5578 5576 5574 5571 5569 5567 5565 5563 5562 5560 5558 5556 5555 5555 5554 5553 5552 5550 5549 5548 5548 5548 5549 5549 5550 5551 5552 5554 5557 5560 5562 5565 5568 5570 5573 5577 5580 5584 5587 5591 5595 5599 5602 5605 5609 5612 5615 5619 5623 5628 5633 5637 5642 5646 5650 5655 5659 5663 5667 5670 5673 5676 5679 5681 5684 5687 5691 5694 5697 5701 5704 5707 5711 5714 5717 5720 5723 5725